This is the latest recevied weather packets stored in our database for station/object DH3PAE-6. If no packets are shown the sender has not sent any weather packets the latest 10 day(s).
| Time | Temp. | Humidity | Pressure | Rain* | Wind** | Luminosity | Snow |
|---|---|---|---|---|---|---|---|
| 1777531996 | 7.78° C | 44% | 1026.4 hPa | 0 mm | - | 385 W/m² | - |
| 1777529016 | 6.67° C | 45% | 1026.4 hPa | 0 mm | - | 130 W/m² | - |
| 1777527796 | 6.11° C | 46% | 1026.3 hPa | 0 mm | - | 135 W/m² | - |
| 1777524496 | 5° C | 49% | 1026.2 hPa | 0 mm | - | 13 W/m² | - |
| 1777521736 | 5.56° C | 48% | 1026 hPa | 0 mm | - | 0 W/m² | - |
| 1777519936 | 6.11° C | 47% | 1026.1 hPa | 0 mm | - | 0 W/m² | - |
| 1777518736 | 6.11° C | 47% | 1026 hPa | 0 mm | - | 0 W/m² | - |
| 1777518136 | 6.11° C | 47% | 1025.9 hPa | 0 mm | - | 0 W/m² | - |
| 1777515136 | 6.67° C | 46% | 1025.9 hPa | 0 mm | - | 0 W/m² | - |
| 1777509741 | 7.22° C | 47% | 1026.2 hPa | 0 mm | - | 0 W/m² | - |
| 1777506738 | 7.78° C | 47% | 1025.8 hPa | 0 mm | - | 0 W/m² | - |
| 1777505541 | 7.78° C | 47% | 1025.9 hPa | 0 mm | - | 0 W/m² | - |
| 1777504961 | 8.33° C | 46% | 1026 hPa | 0 mm | - | 0 W/m² | - |
| 1777502957 | 8.33° C | 45% | 1025.7 hPa | 0 mm | - | 0 W/m² | - |
| 1777502358 | 8.89° C | 45% | 1025.8 hPa | 0 mm | - | 0 W/m² | - |
| 1777501758 | 8.89° C | 44% | 1025.6 hPa | 0 mm | - | 0 W/m² | - |
| 1777498157 | 9.44° C | 43% | 1025.3 hPa | 0 mm | - | 0 W/m² | - |
| 1777497565 | 10° C | 42% | 1025.3 hPa | 0 mm | - | 0 W/m² | - |
| 1777490357 | 12.22° C | 40% | 1024.1 hPa | 0 mm | - | 0 W/m² | - |
| 1777486937 | 13.33° C | 37% | 1023.2 hPa | 0 mm | - | 9 W/m² | - |
| 1777482737 | 15.56° C | 33% | 1022.1 hPa | 0 mm | - | 197 W/m² | - |
| 1777481537 | 15.56° C | 31% | 1022.1 hPa | 0 mm | - | 255 W/m² | - |
| 1777480940 | 15.56° C | 29% | 1022.2 hPa | 0 mm | - | 285 W/m² | - |
| 1777470740 | 17.22° C | 30% | 1022.5 hPa | 0 mm | - | 717 W/m² | - |
| 1777465940 | 17.22° C | 30% | 1023.1 hPa | 0 mm | - | 705 W/m² | - |
* Rain latest hour (hover to see other rain measurements)
** Current wind speed in m/s (hover to see current wind gust speed)